Location: Newark
(25.0000°N, 73.5000°E)
Time: 00:31:40
(UTC+00:00)

Starlink Launch 2 leader - Visible Passes

Search period start: 13 December 2019 00:00
Search period end: 23 December 2019 00:00
Orbit: 279 x 281 km, 53.0° (Epoch: 13 November)

Date Brightness Start Highest point End Pass type
(mag) Time Alt. Az. Time Alt. Az. Time Alt. Az.
13 Dec 2.2 00:58:49 15° NW 01:00:44 70° SW 01:03:09 10° SSE visible
14 Dec 3.8 01:01:16 14° W 01:02:35 21° SW 01:04:32 10° S visible
16 Dec 5.5 14:02:08 10° SSW 14:02:26 12° SSW 14:02:26 12° SSW visible
17 Dec 5.3 14:04:09 10° WSW 14:04:59 18° WSW 14:04:59 18° WSW visible
18 Dec 5.6 14:06:55 10° W 14:07:29 12° WNW 14:07:29 12° WNW visible
